AirNav   Everest Fuels
 
 373 users online  

88AZ
(formerly E75)
Grapevine Airstrip
Roosevelt, Arizona, USA

GOING TO ROOSEVELT?


FAA INFORMATION EFFECTIVE 16 JULY 2020

Location

FAA Identifier: 88AZ
Lat/Long: 33-38-27.2700N 111-03-24.9000W
33-38.454500N 111-03.415000W
33.6409083,-111.0569167
(estimated)
Elevation: 2329 ft. / 710 m (estimated)
Variation: 11E (2015)
From city: 5 miles SE of ROOSEVELT, AZ
Time zone: UTC -7 (year round; does not observe DST)
Zip code: 85545

Airport Operations

Airport use: Private use. Permission required prior to landing
Activation date: 11/2016
Control tower: no
ARTCC: ALBUQUERQUE CENTER
FSS: PRESCOTT FLIGHT SERVICE STATION
Attendance: 
Wind indicator: yes
Segmented circle: yes

Airport Communications

CTAF: 122.9

Nearby radio navigation aids

VOR radial/distance  VOR name  Freq  Var
IWAr043/36.0WILLIE VORTAC113.3013E

Airport Services

Runway Information

Runway 17/35

Dimensions: 3800 x 40 ft. / 1158 x 12 m
Surface: asphalt/concrete
RUNWAY 17  RUNWAY 35
Traffic pattern: leftleft
Runway heading: 159 magnetic, 170 true339 magnetic, 350 true

Airport Ownership and Management from official FAA records

Ownership: Publicly-owned
Owner: U.S. FOREST SERV, TONTO NATL FOREST
TONTO BASIN DISTRICT, 28079 N. AZ HWY 188
ROOSEVELT, AZ 85545
Phone (602) 225-5395
Manager: U.S. FOREST SERV, TONTO NATL FOREST
TONTO BASIN DISTRICT, 28079 N. AZ HWY 188
ROOSEVELT, AZ 85545
Phone (602) 225-5395

Additional Remarks

USE AT PILOTS OWN RISK, NO TRAINING OR TOUCH AND GOES PERMITED.
CONTACT GRAPEVINE@AZPILOTS.ORG FOR CAMPING AND USE INFO.
HAZARDOUS RUNWAY EDGES, AVOID USAGE WHEN CROSS WINDS PRESENT.
RISING TERRAIN WEST OF RWY.
MILTARY TRAINING ACTIVITY POSSIBLE.
DIRT PARKING EAST SIDE OF RWY AT MIDFIELD, NO TIE DOWNS. LIMITED RAMP PARKING W/TIE DOWNS AT WEST RAMP. CALM WIND RWY 17.
AVOID OVERFLIGHT OF TONTO NATIONAL MONUMENT, 3.25 MILES WNW OF AIRSTRIP, OR ANY CAMP GROUNDS.
FOR CD CTC ALBUQUERQUE ARTCC AT 505-856-4861.

Instrument Procedures

There are no published instrument procedures at 88AZ.

Some nearby airports with instrument procedures:

P13 - San Carlos Apache Airport (26 nm SE)
KFFZ - Falcon Field Airport (35 nm W)
KIWA - Phoenix-Mesa Gateway Airport (36 nm SW)
KPAN - Payson Airport (40 nm N)
KSDL - Scottsdale Airport (43 nm W)
 
Loc | Ops | Rwys | IFR | FBO | Links
Com | Nav | Svcs | Stats | Notes
Aerial photo
WARNING: Photo may not be current or correct
Aerial photo of 88AZ (Grapevine Airstrip)
Photo by David Mersereau of Anchorage, AK
Photo taken 17-Nov-2018
looking south.

Do you have a better or more recent aerial photo of Grapevine Airstrip that you would like to share? If so, please send us your photo.

 
Airport distance calculator
Flying to Grapevine Airstrip? Find the distance to fly.

From to 88AZ

Sunrise and sunset
Times for 09-Aug-2020
 Local
(UTC-7)
 Zulu
(UTC)
Morning civil twilight05:1712:17
Sunrise05:4412:44
Sunset19:1502:15
Evening civil twilight19:4202:42

Current date and time
Zulu (UTC)  09-Aug-2020 07:32:14
Local (UTC-7)  09-Aug-2020 00:32:14
 
METAR
KFFZ 
35nm W 
090654Z AUTO 00000KT 10SM CLR 33/10 A2985 RMK AO2 SLP080 T03280100 404280289
KIWA 
36nm SW 
090715Z AUTO 34003KT 10SM CLR 33/05 A2987 RMK AO2 T03310054
KPAN 
40nm N 
090715Z AUTO 00000KT 10SM CLR 22/02 A3021 RMK AO2
KSDL 
43nm W 
090653Z AUTO 01005KT 10SM CLR 34/05 A2988 RMK AO2 SLP086 T03440050 404280294
KCHD 
44nm SW 
090347Z 29007KT 10SM CLR 39/05 A2982 RMK LAST
TAF
KIWA 
36nm SW 
090520Z 0906/1006 33004KT P6SM FEW200 FM090800 11006KT P6SM FEW140 FM091900 24007KT P6SM SKC FM100400 33005KT P6SM FEW140 AMD LTD TO CLD VIS AND WIND TIL 091200
KSDL 
43nm W 
090520Z 0906/1006 VRB03KT P6SM SKC FM091800 19005KT P6SM FEW110 FM092100 24007KT P6SM FEW120 FM100400 VRB03KT P6SM SKC
NOTAMs
Click for the latest NOTAMs
NOTAMs are issued by the DoD/FAA and will open in a separate window not controlled by AirNav.

 

 
 

Would you like to see your business listed on this page?

 If your business provides an interesting product or service to pilots, flight crews, aircraft, or users of the Grapevine Airstrip, you should consider listing it here.  To start the listing process, click on the button below
 
Add a business
 

Other Pages about Grapevine Airstrip

Update a link
 
Copyright © AirNav, LLC. All rights reserved. Privacy Policy  Contact